Notices

What's New in latest Release from April 7th, 2021:

- Updated Glossary, including Speed of Maximum Gust, and Total Hourly Precipitation

- Updated national and regional climate services offices contacts and prices information

- Addition of station inventory lists for 1981-2010, 1971-2000, and 1961-1990 Normals.

If you haven't already, please take our survey and provide feedback about our website: https://eccc.sondage-survey.ca/f/LanguageSelection.aspx?s=442ca660-fcf1-47c0-95a9-59707d6fd709

Hourly Data Report for March 12, 2019

MIRAMICHI RCS
NEW BRUNSWICK
Current Station Operator: ECCC - MSC

47°00'34.000" N
65°27'54.000" W
33.00 m
8100989
71744
ACQ

Download Data

Hourly Data (March 2019)
Hourly Data Report for March 12, 2019
TIME
LST
Temp Definition
°C
Dew Point Definition
°C
Rel Hum Definition
%
Precip. Amount Definition
mm

Wind Dir Definition
10's deg

Wind Spd Definition
km/h
Visibility Definition
km
Stn Press Definition
kPa
Hmdx Definition


Wind Chill Definition


Weather Definition


00:00 -1.0 -3.8 81 0.0 24 16   99.76   -6 LegendNANA
01:00 -0.9 -3.8 80 0.0 24 16   99.80   -6 LegendNANA
02:00 -1.2 -4.1 81 0.0 26 14   99.85   -6 LegendNANA
03:00 -1.0 -4.3 79 0.0 25 14   99.87   -5 LegendNANA
04:00 -1.8 -4.9 80 0.0 26 11   99.90   -6 LegendNANA
05:00 -1.5 -4.7 79 0.0 26 12   99.96   -6 LegendNANA
06:00 -1.6 -4.8 79 0.0 26 10   100.03   -5 LegendNANA
07:00 -1.3 -4.9 77 0.0 28 11   100.12   -5 LegendNANA
08:00 -1.2 -4.9 76 0.0 28 14   100.19   -6 LegendNANA
09:00 -0.8 -5.3 71 0.0 30 19   100.26   -6 LegendNANA
10:00 0.0 -5.5 67 0.0 30 21   100.33   -5 LegendNANA
11:00 1.0 -5.9 60 0.0 32 20   100.38     LegendNANA
12:00 1.6 -6.0 57 0.0 30 22   100.45     LegendNANA
13:00 2.0 -6.6 53 0.0 32 15   100.49     LegendNANA
14:00 2.0 -6.2 55 0.0 30 19   100.52     LegendNANA
15:00 1.4 -6.9 54 0.0 31 18   100.61     LegendNANA
16:00 0.9 -7.3 54 0.0 31 18   100.70     LegendNANA
17:00 0.6 -7.2 56 0.0 29 19   100.80     LegendNANA
18:00 0.3 -7.5 56 0.0 31 11   100.93     LegendNANA
19:00 -0.7 -8.4 56 0.0 31 13   101.06   -5 LegendNANA
20:00 -2.0 -8.7 60 0.0 30 10   101.17   -6 LegendNANA
21:00 -2.8 -8.7 64 0.0 29 12   101.24   -7 LegendNANA
22:00 -3.4 -8.7 67 0.0 27 9   101.33   -7 LegendNANA
23:00 -3.8 -8.9 68 0.0 27 11   101.38   -8 LegendNANA

Notes on Data Quality.

Legend

  • E = Estimated
  • M = Missing
  • NA = Not Available*
  • [empty] = Indicates an unobserved value
Date modified: